Time,TemperatureF,DewpointF,PressureIn,WindDirection,WindDirectionDegrees,WindSpeedMPH,WindSpeedGustMPH,Humidity,HourlyPrecipIn,Conditions,Clouds,dailyrainin,SoftwareType,DateUTC
2013-08-03 00:00:00,69.7,68.2,29.91,SE,128,0.0,0.0,95,0.00,,,0.00,Wunderground v.1.15,2013-08-03 04:00:00,
2013-08-03 00:05:00,69.7,67.9,29.91,SE,128,0.0,0.0,94,0.00,,,0.00,Wunderground v.1.15,2013-08-03 04:05:00,
2013-08-03 00:10:00,69.8,68.3,29.92,SE,128,0.0,0.0,95,0.00,,,0.00,Wunderground v.1.15,2013-08-03 04:10:00,
2013-08-03 00:20:00,70.0,68.5,29.92,SE,128,0.0,0.0,95,0.00,,,0.00,Wunderground v.1.15,2013-08-03 04:20:00,
2013-08-03 00:25:00,70.1,68.6,29.91,SE,128,0.0,0.0,95,0.00,,,0.00,Wunderground v.1.15,2013-08-03 04:25:00,
2013-08-03 00:35:00,69.9,68.1,29.91,SE,128,0.0,0.0,94,0.00,,,0.00,Wunderground v.1.15,2013-08-03 04:35:00,
2013-08-03 00:40:00,69.7,67.9,29.91,SE,128,0.0,0.0,94,0.00,,,0.00,Wunderground v.1.15,2013-08-03 04:40:00,
2013-08-03 00:45:00,69.7,67.9,29.91,SE,128,0.0,0.0,94,0.00,,,0.00,Wunderground v.1.15,2013-08-03 04:45:00,
2013-08-03 00:55:00,69.7,68.2,29.91,SE,128,0.0,0.0,95,0.00,,,0.00,Wunderground v.1.15,2013-08-03 04:55:00,
2013-08-03 01:05:00,69.6,68.1,29.91,SE,128,0.0,0.0,95,0.00,,,0.00,Wunderground v.1.15,2013-08-03 05:05:00,
2013-08-03 01:10:00,69.5,68.0,29.91,SE,128,0.0,0.0,95,0.00,,,0.00,Wunderground v.1.15,2013-08-03 05:10:00,
2013-08-03 01:20:00,69.4,67.9,29.90,SE,128,0.0,0.0,95,0.00,,,0.00,Wunderground v.1.15,2013-08-03 05:20:00,
2013-08-03 01:30:00,69.4,67.9,29.90,SE,128,0.0,0.0,95,0.00,,,0.00,Wunderground v.1.15,2013-08-03 05:30:00,
2013-08-03 01:40:00,69.4,67.9,29.91,SE,128,0.0,0.0,95,0.00,,,0.00,Wunderground v.1.15,2013-08-03 05:40:00,
2013-08-03 01:50:00,69.3,67.8,29.90,SE,128,0.0,0.0,95,0.00,,,0.00,Wunderground v.1.15,2013-08-03 05:50:00,
2013-08-03 02:00:00,69.4,67.9,29.91,SE,128,0.0,0.0,95,0.00,,,0.00,Wunderground v.1.15,2013-08-03 06:00:00,
2013-08-03 02:10:00,69.3,67.8,29.90,SE,128,0.0,0.0,95,0.00,,,0.00,Wunderground v.1.15,2013-08-03 06:10:00,
2013-08-03 02:20:00,69.2,67.7,29.90,SE,128,0.0,0.0,95,0.00,,,0.00,Wunderground v.1.15,2013-08-03 06:20:00,
2013-08-03 02:30:00,69.2,67.7,29.90,SE,128,0.0,0.0,95,0.00,,,0.00,Wunderground v.1.15,2013-08-03 06:30:00,
2013-08-03 02:40:00,69.3,68.1,29.90,SE,128,0.0,0.0,96,0.00,,,0.00,Wunderground v.1.15,2013-08-03 06:40:00,
2013-08-03 02:50:00,69.2,67.7,29.89,SE,128,0.0,0.0,95,0.00,,,0.00,Wunderground v.1.15,2013-08-03 06:50:00,
2013-08-03 02:55:00,69.3,68.1,29.89,SE,128,0.0,0.0,96,0.00,,,0.00,Wunderground v.1.15,2013-08-03 06:55:00,
2013-08-03 03:05:00,69.2,67.7,29.89,SE,128,0.0,0.0,95,0.00,,,0.00,Wunderground v.1.15,2013-08-03 07:05:00,
2013-08-03 03:15:00,69.0,67.5,29.89,SE,128,0.0,0.0,95,0.00,,,0.00,Wunderground v.1.15,2013-08-03 07:15:00,
2013-08-03 03:25:00,69.0,67.5,29.88,SE,128,0.0,0.0,95,0.00,,,0.00,Wunderground v.1.15,2013-08-03 07:25:00,
2013-08-03 03:35:00,68.9,67.4,29.88,SE,128,0.0,0.0,95,0.00,,,0.00,Wunderground v.1.15,2013-08-03 07:35:00,
2013-08-03 03:45:00,68.6,67.1,29.88,SE,128,0.0,0.0,95,0.00,,,0.00,Wunderground v.1.15,2013-08-03 07:45:00,
2013-08-03 03:55:00,68.8,67.3,29.88,SE,128,0.0,0.0,95,0.00,,,0.00,Wunderground v.1.15,2013-08-03 07:55:00,
2013-08-03 04:00:00,68.6,67.1,29.88,SE,128,0.0,0.0,95,0.00,,,0.00,Wunderground v.1.15,2013-08-03 08:00:00,
2013-08-03 04:10:00,68.5,67.0,29.87,SE,128,0.0,0.0,95,0.00,,,0.00,Wunderground v.1.15,2013-08-03 08:10:00,
2013-08-03 04:20:00,68.3,67.1,29.87,SE,128,0.0,0.0,96,0.00,,,0.00,Wunderground v.1.15,2013-08-03 08:20:00,
2013-08-03 04:30:00,68.2,67.0,29.87,SE,128,0.0,0.0,96,0.00,,,0.00,Wunderground v.1.15,2013-08-03 08:30:00,
2013-08-03 04:40:00,68.3,67.1,29.88,SE,128,0.0,0.0,96,0.00,,,0.00,Wunderground v.1.15,2013-08-03 08:40:00,
2013-08-03 04:50:00,68.1,66.6,29.88,SE,128,0.0,0.0,95,0.00,,,0.00,Wunderground v.1.15,2013-08-03 08:50:00,
2013-08-03 05:00:00,67.9,66.4,29.88,SE,128,0.0,0.0,95,0.00,,,0.00,Wunderground v.1.15,2013-08-03 09:00:00,
2013-08-03 05:10:00,67.8,66.6,29.87,SE,128,0.0,0.0,96,0.00,,,0.00,Wunderground v.1.15,2013-08-03 09:10:00,
2013-08-03 05:20:00,67.7,66.5,29.88,SE,128,0.0,0.0,96,0.00,,,0.00,Wunderground v.1.15,2013-08-03 09:20:00,
2013-08-03 05:25:00,67.7,66.5,29.88,SE,128,0.0,0.0,96,0.00,,,0.00,Wunderground v.1.15,2013-08-03 09:25:00,
2013-08-03 05:35:00,67.8,66.6,29.88,SE,128,0.0,0.0,96,0.00,,,0.00,Wunderground v.1.15,2013-08-03 09:35:00,
2013-08-03 05:45:00,67.7,66.5,29.88,SE,128,0.0,0.0,96,0.00,,,0.00,Wunderground v.1.15,2013-08-03 09:45:00,
2013-08-03 05:55:00,67.6,66.4,29.88,SE,128,0.0,0.0,96,0.00,,,0.00,Wunderground v.1.15,2013-08-03 09:55:00,
2013-08-03 06:05:00,67.6,66.4,29.88,SE,128,0.0,0.0,96,0.00,,,0.00,Wunderground v.1.15,2013-08-03 10:05:00,
2013-08-03 06:15:00,67.6,66.4,29.89,SE,128,0.0,0.0,96,0.00,,,0.00,Wunderground v.1.15,2013-08-03 10:15:00,
2013-08-03 06:25:00,67.4,66.2,29.89,SE,128,0.0,0.0,96,0.00,,,0.00,Wunderground v.1.15,2013-08-03 10:25:00,
2013-08-03 06:35:00,67.3,66.1,29.89,SE,128,0.0,0.0,96,0.00,,,0.00,Wunderground v.1.15,2013-08-03 10:35:00,
2013-08-03 06:45:00,67.4,66.2,29.88,SE,128,0.0,0.0,96,0.00,,,0.00,Wunderground v.1.15,2013-08-03 10:45:00,
2013-08-03 06:50:00,67.4,66.2,29.88,SE,128,0.0,0.0,96,0.00,,,0.00,Wunderground v.1.15,2013-08-03 10:50:00,
2013-08-03 07:00:00,67.3,66.1,29.88,SE,128,0.0,0.0,96,0.00,,,0.00,Wunderground v.1.15,2013-08-03 11:00:00,
2013-08-03 07:10:00,67.3,66.1,29.88,SE,128,0.0,0.0,96,0.00,,,0.00,Wunderground v.1.15,2013-08-03 11:10:00,
2013-08-03 07:20:00,67.4,66.2,29.88,SE,128,0.0,0.0,96,0.00,,,0.00,Wunderground v.1.15,2013-08-03 11:20:00,
2013-08-03 07:30:00,67.7,66.8,29.89,SE,125,0.0,0.0,97,0.00,,,0.00,Wunderground v.1.15,2013-08-03 11:30:00,
2013-08-03 07:40:00,67.8,66.9,29.88,SE,125,0.0,0.0,97,0.00,,,0.00,Wunderground v.1.15,2013-08-03 11:40:00,
2013-08-03 07:50:00,67.9,67.0,29.88,SE,125,0.0,0.0,97,0.00,,,0.00,Wunderground v.1.15,2013-08-03 11:50:00,
2013-08-03 08:01:00,67.9,67.0,29.89,SE,125,0.0,0.0,97,0.00,,,0.00,Wunderground v.1.15,2013-08-03 12:01:00,
2013-08-03 08:10:00,68.1,67.2,29.89,SE,125,0.0,0.0,97,0.00,,,0.00,Wunderground v.1.15,2013-08-03 12:10:00,
2013-08-03 08:20:00,68.2,67.0,29.89,SE,125,0.0,0.0,96,0.00,,,0.00,Wunderground v.1.15,2013-08-03 12:20:00,
2013-08-03 08:30:00,68.6,67.7,29.89,SE,125,0.0,0.0,97,0.00,,,0.00,Wunderground v.1.15,2013-08-03 12:30:00,
2013-08-03 08:40:00,69.0,68.1,29.90,SE,125,0.0,0.0,97,0.00,,,0.00,Wunderground v.1.15,2013-08-03 12:40:00,
2013-08-03 08:45:00,69.2,68.3,29.90,SE,125,0.0,0.0,97,0.00,,,0.00,Wunderground v.1.15,2013-08-03 12:45:00,
2013-08-03 08:55:00,69.9,69.0,29.90,SE,125,0.0,0.0,97,0.00,,,0.00,Wunderground v.1.15,2013-08-03 12:55:00,
2013-08-03 09:00:00,70.4,69.5,29.90,SE,125,0.0,0.0,97,0.00,,,0.00,Wunderground v.1.15,2013-08-03 13:00:00,
2013-08-03 09:10:00,71.5,70.6,29.90,SE,136,0.0,0.0,97,0.00,,,0.00,Wunderground v.1.15,2013-08-03 13:10:00,
2013-08-03 09:15:00,72.3,71.1,29.90,SE,140,0.0,0.0,96,0.00,,,0.00,Wunderground v.1.15,2013-08-03 13:15:00,
2013-08-03 09:25:00,73.0,70.9,29.90,SE,140,0.0,0.0,93,0.00,,,0.00,Wunderground v.1.15,2013-08-03 13:25:00,
2013-08-03 09:35:00,73.5,71.0,29.89,SSE,151,0.0,0.0,92,0.00,,,0.00,Wunderground v.1.15,2013-08-03 13:35:00,
2013-08-03 09:45:00,73.9,70.8,29.89,SSE,151,0.0,0.0,90,0.00,,,0.00,Wunderground v.1.15,2013-08-03 13:45:00,
2013-08-03 09:55:00,74.5,71.4,29.89,SSE,151,0.0,0.0,90,0.00,,,0.00,Wunderground v.1.15,2013-08-03 13:55:00,
2013-08-03 10:01:00,74.9,71.4,29.89,SSE,151,0.0,0.0,89,0.00,,,0.00,Wunderground v.1.15,2013-08-03 14:01:00,
2013-08-03 10:10:00,75.3,71.5,29.89,SSE,151,0.0,0.0,88,0.00,,,0.00,Wunderground v.1.15,2013-08-03 14:10:00,
2013-08-03 10:20:00,75.8,71.7,29.89,SSE,155,0.0,0.0,87,0.00,,,0.00,Wunderground v.1.15,2013-08-03 14:20:00,
2013-08-03 10:25:00,76.0,71.5,29.89,SSE,155,0.0,0.0,86,0.00,,,0.00,Wunderground v.1.15,2013-08-03 14:25:00,
2013-08-03 10:35:00,76.5,72.0,29.89,NW,319,0.0,0.0,86,0.00,,,0.00,Wunderground v.1.15,2013-08-03 14:35:00,
2013-08-03 10:45:00,76.9,72.0,29.90,NW,308,0.0,0.0,85,0.00,,,0.00,Wunderground v.1.15,2013-08-03 14:45:00,
2013-08-03 10:50:00,77.0,72.1,29.90,NW,308,0.0,0.0,85,0.00,,,0.00,Wunderground v.1.15,2013-08-03 14:50:00,
2013-08-03 11:00:00,77.5,72.6,29.89,WNW,292,0.0,0.0,85,0.00,,,0.00,Wunderground v.1.15,2013-08-03 15:00:00,
2013-08-03 11:10:00,77.8,72.9,29.89,WNW,290,0.0,0.0,85,0.00,,,0.00,Wunderground v.1.15,2013-08-03 15:10:00,
2013-08-03 11:20:00,78.1,72.9,29.89,WNW,288,0.0,0.0,84,0.00,,,0.00,Wunderground v.1.15,2013-08-03 15:20:00,
2013-08-03 11:30:00,79.0,73.7,29.90,West,259,0.0,0.0,84,0.00,,,0.00,Wunderground v.1.15,2013-08-03 15:30:00,
2013-08-03 11:40:00,79.5,74.2,29.89,SW,227,0.0,0.0,84,0.00,,,0.00,Wunderground v.1.15,2013-08-03 15:40:00,
2013-08-03 11:50:00,80.7,74.3,29.89,SSW,211,0.0,0.0,81,0.00,,,0.00,Wunderground v.1.15,2013-08-03 15:50:00,
2013-08-03 12:01:00,81.4,75.0,29.89,SSW,211,0.0,0.0,81,0.00,,,0.00,Wunderground v.1.15,2013-08-03 16:01:00,
2013-08-03 12:10:00,81.9,73.6,29.89,SSW,210,0.0,0.0,76,0.00,,,0.00,Wunderground v.1.15,2013-08-03 16:10:00,
2013-08-03 12:20:00,82.4,72.9,29.88,SW,219,0.0,0.0,73,0.00,,,0.00,Wunderground v.1.15,2013-08-03 16:20:00,
2013-08-03 12:30:00,82.8,73.3,29.88,SW,233,0.0,0.0,73,0.00,,,0.00,Wunderground v.1.15,2013-08-03 16:30:00,
2013-08-03 12:40:00,83.5,70.9,29.88,NNW,341,0.0,0.0,66,0.00,,,0.00,Wunderground v.1.15,2013-08-03 16:40:00,
2013-08-03 12:50:00,84.1,70.6,29.87,SW,223,0.0,0.0,64,0.00,,,0.00,Wunderground v.1.15,2013-08-03 16:50:00,
2013-08-03 13:01:00,84.7,71.6,29.87,NNW,343,0.0,0.0,65,0.00,,,0.00,Wunderground v.1.15,2013-08-03 17:01:00,
2013-08-03 13:10:00,85.1,70.6,29.87,West,279,0.0,0.0,62,0.00,,,0.00,Wunderground v.1.15,2013-08-03 17:10:00,
2013-08-03 13:20:00,85.5,70.5,29.87,West,266,0.0,0.0,61,0.00,,,0.00,Wunderground v.1.15,2013-08-03 17:20:00,
2013-08-03 13:30:00,85.6,70.6,29.87,WSW,243,0.0,0.0,61,0.00,,,0.00,Wunderground v.1.15,2013-08-03 17:30:00,
2013-08-03 13:40:00,86.0,69.5,29.87,NNW,335,0.0,0.0,58,0.00,,,0.00,Wunderground v.1.15,2013-08-03 17:40:00,
2013-08-03 13:45:00,86.0,71.0,29.87,NW,322,0.0,0.0,61,0.00,,,0.00,Wunderground v.1.15,2013-08-03 17:45:00,
2013-08-03 13:55:00,85.9,71.8,29.87,SSW,203,0.0,0.0,63,0.00,,,0.00,Wunderground v.1.15,2013-08-03 17:55:00,
2013-08-03 14:00:00,86.0,72.9,29.87,SW,219,0.0,0.0,65,0.00,,,0.00,Wunderground v.1.15,2013-08-03 18:00:00,
2013-08-03 14:10:00,86.1,71.1,29.86,West,262,0.0,0.0,61,0.00,,,0.00,Wunderground v.1.15,2013-08-03 18:10:00,
2013-08-03 14:15:00,86.3,70.8,29.87,NNW,329,0.0,0.0,60,0.00,,,0.00,Wunderground v.1.15,2013-08-03 18:15:00,
2013-08-03 14:25:00,86.7,70.2,29.87,SSW,209,0.0,0.0,58,0.00,,,0.00,Wunderground v.1.15,2013-08-03 18:25:00,
2013-08-03 14:35:00,86.6,69.0,29.86,West,273,0.0,0.0,56,0.00,,,0.00,Wunderground v.1.15,2013-08-03 18:35:00,
2013-08-03 14:45:00,86.8,68.7,29.87,SSW,197,0.0,0.0,55,0.00,,,0.00,Wunderground v.1.15,2013-08-03 18:45:00,
2013-08-03 14:55:00,86.8,69.2,29.85,SW,228,0.0,0.0,56,0.00,,,0.00,Wunderground v.1.15,2013-08-03 18:55:00,
2013-08-03 15:01:00,86.6,70.6,29.85,West,267,0.0,0.0,59,0.00,,,0.00,Wunderground v.1.15,2013-08-03 19:01:00,
2013-08-03 15:10:00,86.8,69.2,29.85,West,275,0.0,0.0,56,0.00,,,0.00,Wunderground v.1.15,2013-08-03 19:10:00,
2013-08-03 15:20:00,86.9,70.8,29.85,West,269,0.0,0.0,59,0.00,,,0.00,Wunderground v.1.15,2013-08-03 19:20:00,
2013-08-03 15:30:00,87.3,70.2,29.85,West,260,0.0,0.0,57,0.00,,,0.00,Wunderground v.1.15,2013-08-03 19:30:00,
2013-08-03 15:40:00,86.8,69.7,29.84,West,276,0.0,0.0,57,0.00,,,0.00,Wunderground v.1.15,2013-08-03 19:40:00,
2013-08-03 15:45:00,86.6,69.6,29.84,WNW,299,0.0,0.0,57,0.00,,,0.00,Wunderground v.1.15,2013-08-03 19:45:00,
2013-08-03 15:55:00,86.4,70.4,29.83,West,262,0.0,0.0,59,0.00,,,0.00,Wunderground v.1.15,2013-08-03 19:55:00,
2013-08-03 16:00:00,86.4,69.4,29.83,West,259,0.0,0.0,57,0.00,,,0.00,Wunderground v.1.15,2013-08-03 20:00:00,
2013-08-03 16:10:00,86.0,70.0,29.83,South,190,0.0,0.0,59,0.00,,,0.00,Wunderground v.1.15,2013-08-03 20:10:00,
2013-08-03 16:15:00,85.8,69.8,29.83,West,276,0.0,0.0,59,0.00,,,0.00,Wunderground v.1.15,2013-08-03 20:15:00,
2013-08-03 16:25:00,85.9,69.9,29.84,WNW,284,0.0,0.0,59,0.00,,,0.00,Wunderground v.1.15,2013-08-03 20:25:00,
2013-08-03 16:35:00,85.7,70.2,29.84,WNW,284,0.0,0.0,60,0.00,,,0.00,Wunderground v.1.15,2013-08-03 20:35:00,
2013-08-03 16:45:00,85.7,70.7,29.83,West,281,0.0,0.0,61,0.00,,,0.00,Wunderground v.1.15,2013-08-03 20:45:00,
2013-08-03 16:55:00,86.0,71.9,29.83,West,273,0.0,0.0,63,0.00,,,0.00,Wunderground v.1.15,2013-08-03 20:55:00,
2013-08-03 17:00:00,85.8,70.8,29.83,South,187,0.0,0.0,61,0.00,,,0.00,Wunderground v.1.15,2013-08-03 21:00:00,
2013-08-03 17:10:00,85.2,71.6,29.83,WNW,288,0.0,0.0,64,0.00,,,0.00,Wunderground v.1.15,2013-08-03 21:10:00,
2013-08-03 17:20:00,85.0,71.9,29.83,NNW,328,0.0,0.0,65,0.00,,,0.00,Wunderground v.1.15,2013-08-03 21:20:00,
2013-08-03 17:25:00,84.8,71.3,29.83,NW,319,0.0,0.0,64,0.00,,,0.00,Wunderground v.1.15,2013-08-03 21:25:00,
2013-08-03 17:35:00,84.3,71.7,29.83,NNW,331,0.0,0.0,66,0.00,,,0.00,Wunderground v.1.15,2013-08-03 21:35:00,
2013-08-03 17:45:00,83.9,71.8,29.83,NNW,331,0.0,0.0,67,0.00,,,0.00,Wunderground v.1.15,2013-08-03 21:45:00,
2013-08-03 17:55:00,83.2,72.0,29.83,NE,53,0.0,0.0,69,0.00,,,0.00,Wunderground v.1.15,2013-08-03 21:55:00,
2013-08-03 18:00:00,82.9,70.8,29.82,ENE,60,0.0,0.0,67,0.00,,,0.00,Wunderground v.1.15,2013-08-03 22:00:00,
2013-08-03 18:10:00,83.2,71.1,29.82,ENE,59,0.0,0.0,67,0.00,,,0.00,Wunderground v.1.15,2013-08-03 22:10:00,
2013-08-03 18:20:00,83.2,72.8,29.82,NE,51,0.0,0.0,71,0.00,,,0.00,Wunderground v.1.15,2013-08-03 22:20:00,
2013-08-03 18:30:00,82.9,69.0,29.82,NE,51,0.0,0.0,63,0.00,,,0.00,Wunderground v.1.15,2013-08-03 22:30:00,
2013-08-03 18:40:00,82.5,70.0,29.82,NE,38,0.0,0.0,66,0.00,,,0.00,Wunderground v.1.15,2013-08-03 22:40:00,
2013-08-03 18:50:00,82.4,68.5,29.82,ENE,72,0.0,0.0,63,0.00,,,0.00,Wunderground v.1.15,2013-08-03 22:50:00,
2013-08-03 19:00:00,83.0,69.1,29.83,ENE,59,0.0,0.0,63,0.00,,,0.00,Wunderground v.1.15,2013-08-03 23:00:00,
2013-08-03 19:10:00,83.1,68.7,29.82,ENE,58,0.0,0.0,62,0.00,,,0.00,Wunderground v.1.15,2013-08-03 23:10:00,
2013-08-03 19:20:00,82.9,70.8,29.83,ENE,58,0.0,0.0,67,0.00,,,0.00,Wunderground v.1.15,2013-08-03 23:20:00,
2013-08-03 19:30:00,82.1,70.5,29.83,ENE,58,0.0,0.0,68,0.00,,,0.00,Wunderground v.1.15,2013-08-03 23:30:00,
2013-08-03 19:35:00,81.5,69.9,29.83,ENE,58,0.0,0.0,68,0.00,,,0.00,Wunderground v.1.15,2013-08-03 23:35:00,
2013-08-03 19:45:00,81.1,72.0,29.83,ENE,58,0.0,0.0,74,0.00,,,0.00,Wunderground v.1.15,2013-08-03 23:45:00,
2013-08-03 19:55:00,80.1,71.8,29.83,ENE,58,0.0,0.0,76,0.00,,,0.00,Wunderground v.1.15,2013-08-03 23:55:00,
2013-08-03 20:05:00,79.2,71.7,29.83,ENE,58,0.0,0.0,78,0.00,,,0.00,Wunderground v.1.15,2013-08-04 00:05:00,
2013-08-03 20:15:00,77.7,70.7,29.83,ENE,58,0.0,0.0,79,0.00,,,0.00,Wunderground v.1.15,2013-08-04 00:15:00,
2013-08-03 20:25:00,76.8,70.2,29.84,NE,48,0.0,0.0,80,0.00,,,0.00,Wunderground v.1.15,2013-08-04 00:25:00,
2013-08-03 20:35:00,75.7,70.5,29.84,NE,48,0.0,0.0,84,0.00,,,0.00,Wunderground v.1.15,2013-08-04 00:35:00,
2013-08-03 20:40:00,75.2,70.7,29.84,NE,48,0.0,0.0,86,0.00,,,0.00,Wunderground v.1.15,2013-08-04 00:40:00,
2013-08-03 20:50:00,74.3,70.2,29.84,NE,48,0.0,0.0,87,0.00,,,0.00,Wunderground v.1.15,2013-08-04 00:50:00,
2013-08-03 21:00:00,73.4,69.3,29.84,NE,48,0.0,0.0,87,0.00,,,0.00,Wunderground v.1.15,2013-08-04 01:00:00,
2013-08-03 21:10:00,72.8,69.0,29.85,NE,48,0.0,0.0,88,0.00,,,0.00,Wunderground v.1.15,2013-08-04 01:10:00,
2013-08-03 21:20:00,72.1,68.3,29.85,NE,48,0.0,0.0,88,0.00,,,0.00,Wunderground v.1.15,2013-08-04 01:20:00,
2013-08-03 21:30:00,71.7,68.3,29.85,NE,48,0.0,0.0,89,0.00,,,0.00,Wunderground v.1.15,2013-08-04 01:30:00,
2013-08-03 21:40:00,71.2,68.1,29.85,NE,48,0.0,0.0,90,0.00,,,0.00,Wunderground v.1.15,2013-08-04 01:40:00,
2013-08-03 21:50:00,70.8,68.0,29.85,NE,48,0.0,0.0,91,0.00,,,0.00,Wunderground v.1.15,2013-08-04 01:50:00,
2013-08-03 22:00:00,70.6,67.8,29.85,NE,48,0.0,0.0,91,0.00,,,0.00,Wunderground v.1.15,2013-08-04 02:00:00,
2013-08-03 22:05:00,70.5,67.7,29.85,NE,48,0.0,0.0,91,0.00,,,0.00,Wunderground v.1.15,2013-08-04 02:05:00,
2013-08-03 22:15:00,70.2,67.8,29.85,NE,48,0.0,0.0,92,0.00,,,0.00,Wunderground v.1.15,2013-08-04 02:15:00,
2013-08-03 22:25:00,70.0,67.6,29.85,NE,48,0.0,0.0,92,0.00,,,0.00,Wunderground v.1.15,2013-08-04 02:25:00,
2013-08-03 22:35:00,69.7,67.3,29.86,NE,48,0.0,0.0,92,0.00,,,0.00,Wunderground v.1.15,2013-08-04 02:35:00,
2013-08-03 22:45:00,69.6,67.5,29.86,NE,48,0.0,0.0,93,0.00,,,0.00,Wunderground v.1.15,2013-08-04 02:45:00,
2013-08-03 22:55:00,69.5,67.4,29.86,NE,48,0.0,0.0,93,0.00,,,0.00,Wunderground v.1.15,2013-08-04 02:55:00,
2013-08-03 23:05:00,69.4,67.6,29.86,NE,48,0.0,0.0,94,0.00,,,0.00,Wunderground v.1.15,2013-08-04 03:05:00,
2013-08-03 23:15:00,69.2,67.1,29.86,NE,48,0.0,0.0,93,0.00,,,0.00,Wunderground v.1.15,2013-08-04 03:15:00,
2013-08-03 23:25:00,69.0,66.9,29.86,NE,48,0.0,0.0,93,0.00,,,0.00,Wunderground v.1.15,2013-08-04 03:25:00,
2013-08-03 23:30:00,68.9,67.1,29.86,NE,48,0.0,0.0,94,0.00,,,0.00,Wunderground v.1.15,2013-08-04 03:30:00,
2013-08-03 23:40:00,68.8,67.0,29.86,NE,48,0.0,0.0,94,0.00,,,0.00,Wunderground v.1.15,2013-08-04 03:40:00,
2013-08-03 23:50:00,68.6,66.8,29.86,NE,48,0.0,0.0,94,0.00,,,0.00,Wunderground v.1.15,2013-08-04 03:50:00,